Location: Bacharowice
(49.9333°N, 19.5833°E)
Time: 13:05:10
(UTC+00:00)

Cosmos 1707 Rocket - Pass Details

Date: 11 May 2021
Orbit: 605 x 631 km, 82.5° (Epoch: 22 June)

Event Time Altitude Azimuth Distance (km) Brightness Sun altitude
Exits shadow 20:55:52 40° 146° (SSE) 915 3.9 -18.3°
Maximum altitude 20:57:05 55° 95° (E) 750 3.7 -18.4°
Drops below altitude 10° 21:01:25 10° 18° (NNE) 2,002 6.8 -18.7°
Sets 21:03:42 0° 14° (NNE) 2,917 7.9 -18.8°
